Regional Weather Roundup
Issued by NWS Sioux Falls, SD

Home | Current Version | Previous Version | Text Only | Print | Product List | Glossary Off
Versions: 1 2 3 4 5 6 7 8 9 10 11 12 13 14 15 16 17 18 19 20 21 22 23 24 25 26 27 28 29 30 31 32 33 34 35 36 37 38 39 40 41 42 43 44 45 46 47 48 49 50

000
ASUS43 KFSD 111202
RWRFSD

WEATHER ROUNDUP FOR SE SOUTH DAKOTA/SW MINNESOTA/NW IOWA
NATIONAL WEATHER SERVICE SIOUX FALLS SD
600 AM CST MON DEC 11 2017

NOTE: "FAIR" INDICATES FEW OR NO CLOUDS BELOW 12,000 FEET WITH NO
SIGNIFICANT WEATHER AND OR OBSTRUCTIONS TO VISIBILITY.


SDZ038>040-050-052>070-111300-
SOUTHEAST SOUTH DAKOTA

CITY           SKY/WX    TMP DP  RH WIND       PRES   REMARKS
BROOKINGS      CLOUDY    37  28  70 NW20G25   29.80R
CHAMBERLAIN    MOCLDY    44  29  56 NW29G44   30.00R
6HR MIN TEMP:  38; 6HR MAX TEMP:  46;

HURON          CLOUDY    41  29  62 NW25G35   29.89R
6HR MIN TEMP:  32; 6HR MAX TEMP:  41;

MADISON        LGT RAIN  36  30  80 NW26G40   29.83S
MITCHELL       CLOUDY    42  28  57 NW26G35   29.92R
6HR MIN TEMP:  35; 6HR MAX TEMP:  42;

SIOUX FALLS    CLOUDY    39  27  62 NW21G35   29.83R
6HR MIN TEMP:  32; 6HR MAX TEMP:  39;

WINNER         FAIR      45  22  40 NW28G37   30.04R
YANKTON        CLEAR     40  23  50 W20       29.92R
$$

MNZ071-072-080-081-089-090-097-098-111300-
SOUTHWEST MINNESOTA

CITY           SKY/WX    TMP DP  RH WIND       PRES   REMARKS
FAIRMONT       CLOUDY    30  26  85 E3        29.74F
JACKSON        PTCLDY    34  27  75 MISG      29.74S
LUVERNE        PTCLDY    34  25  69 NW18      29.81R WCI  23
MARSHALL       CLOUDY    40  27  59 NW26      29.74F
6HR MIN TEMP:  36; 6HR MAX TEMP:  41;

MONTEVIDEO     CLOUDY    39  28  65 NW12G17   29.73S
PIPESTONE      CLOUDY    36  25  64 NW20G29   29.79R
REDWOOD FALLS  MOCLDY    38  26  62 W13       29.72S
TRACY          CLOUDY    39  28  64 NW16      29.75R
WINDOM           N/A     34  19  55 W12       29.73S WCI  25
WORTHINGTON    PTCLDY    32  25  75 W21       29.76R WCI  20
$$

IAZ001>003-012>014-020>022-031-032-NEZ013-014-SDZ071-111300-
NORTHWEST IOWA

CITY           SKY/WX    TMP DP  RH WIND       PRES   REMARKS
DENISON        CLOUDY    32  21  64 CALM      29.87S
ESTHERVILLE    PTCLDY    33  25  72 SW18      29.72F WCI  22
LE MARS        CLEAR     37  23  56 W14G21    29.85R
ORANGE CITY    CLEAR     37  27  65 W18       29.82R
SHELDON        CLEAR     34  25  69 W21G28    29.79R WCI  22
SIOUX CITY     CLOUDY    37  21  52 W16       29.87F
6HR MIN TEMP:  25; 6HR MAX TEMP:  37;

SPENCER        CLEAR     34  24  67 W17       29.78F WCI  23
6HR MIN TEMP:  28; 6HR MAX TEMP:  35;

STORM LAKE     CLOUDY    34  21  60 W16       29.80F WCI  23
$$

ABBREVIATIONS USED IN REMARKS
   TC - TEMPERATURE IN CELSIUS
  WCI - WIND CHILL INDEX
   HX - HEAT INDEX
  VSB - VISIBILITY





USA.gov is the U.S. government's official web portal to all federal, state and local government web resources and services.